Location: Glencliff
(36.1226°N, 86.7183°W)
Time: 13:57:32
(UTC+00:00)

Cosmos 2263 Rocket - Pass Details

Date: 25 August 2019
Orbit: 823 x 849 km, 71.0° (Epoch: 21 September)

Event Time Altitude Azimuth Distance (km) Brightness Sun altitude
Exits shadow 07:36:23 18° 92° (E) 1,970 4.3 -36.7°
Drops below altitude 10° 07:39:31 10° 58° (ENE) 2,474 5.3 -36.3°
Sets 07:42:43 0° 40° (NE) 3,416 6.4 -36.0°
